www.pogodaiklimat.ru

Погода и климат >> Архив погоды >> Мексика >> Кампече


ПОГОДА в Кампече

  • Прогноз погоды в Кампече
  • Монитор погоды в Кампече

АРХИВ ПОГОДЫ в Кампече

Время (UTC), дата Ветер
(напр.,м/с)
 
Видим.   Явления Облачность Т
(С)
Тd
(С)
f
(%)
Тe
(С)
Тes
(С)
Комфортность P
(гПа)
Po
(гПа)
Тmin
(С)
Tmax
(С)
R
(мм)
R24
(мм)
S
(см)
18 12.06 Ю 3 10 км 4/4 500 м
[Cu med, cong]
+34.8 +29.6 75 +61 +72 опасность
перегрева
1014.5 1013.9 +23.2 +34.8
21 12.06 СЗ 2 10 км 1/1 450 м
[Cu med, cong]
+32.2 +27.8 78 +52 +64 опасность
перегрева
1012.6 1012.1
00 13.06 СВ 1 10 км слаб. морось 8/8 210 м
[Cu med, cong]
+26.5 +24.7 90 +38 +38 очень
душно
1012.7 1012.1 +23.5 +35.0 2
03 13.06 СВ 3 6000 м 3/0
[As trans]
+25.2 +23.8 92 +34 +34 очень
душно
1015.3 1014.7 0.2
06 13.06 ЮВ 1 6000 м 3/3 120 м
[Sc]
+24.8 +24.0 95 +34 +34 очень
душно
1015.6 1015.1 +23.2 +35.0 0.2
09 13.06 В 2 6000 м 9/9 120 м
[Sc]
+25.2 +23.8 92 +34 +34 очень
душно
1014.0 1013.4
12 13.06 СВ 1 10 км 8/0
[Ac As Ci sp]
+25.2 +24.4 95 +35 +35 очень
душно
1014.2 1013.6 +24.8 +35.0
15 13.06 ЮВ 2 10 км 9/0
[Ac und]
+29.6 +27.8 90 +48 +53 опасность
перегрева
1015.3 1014.7
18 13.06 В 2 10 км 9/3 540 м
[Cu med, cong Ac und]
+34.2 +28.3 71 +55 +62 опасность
перегрева
1015.0 1014.4 +28.3 +34.4
21 13.06 Ю 2 н/о дождь 1/1 150 м
[Cu med, cong]
+26.6 +25.3 93 +39 +50 очень
душно
1013.6 1013.0 21
00 14.06 С 3 6000 м слаб. дождь {гроза} 10/3 480 м
[Frnb As op]
+24.8 +24.3 97 +34 +34 очень
душно
1015.7 1015.1 +24.8 +34.8 26
03 14.06 СВ 3 6000 м дождь 10/3 480 м
[Frnb As op]
+24.4 +23.6 95 +33 +33 очень
душно
1017.5 1016.9 4
06 14.06 В 2 6000 м {морось, дождь} 10/0
[As op]
+24.2 +23.1 94 +32 +32 очень
душно
1016.4 1015.9 +24.0 +34.8 1
09 14.06 ЮВ 1 6000 м 10/0
[As op]
+24.1 +23.6 97 +33 +33 очень
душно
1014.6 1014.0
12 14.06 ЮВ 2 10 км 10/0
[As op]
+25.0 +23.9 94 +34 +34 очень
душно
1015.1 1014.5 +24.0 +34.8
15 14.06 В 3 10 км 10/0
[As op]
+27.0 +24.0 84 +37 +39 очень
душно
1016.2 1015.6
18 14.06 ЮВ 2 10 км 10/5 300 м
[Frnb As op]
+30.8 +27.7 84 +50 +52 опасность
перегрева
1016.0 1015.4 +24.0 +30.8
00 15.06 С 1 10 км в посл. час морось 10/0
[Ac As]
+28.6 +26.2 87 +43 +44 опасность
перегрева
1013.9 1013.3 +24.0 +30.9 0.8
03 15.06 В 2 6000 м 10/0
[Ac As]
+26.0 +24.4 91 +36 +36 очень
душно
1014.9 1014.4
12 15.06 В 3 10 км в посл. час морось 10/0
[Ac As]
+25.6 +24.5 94 +36 +36 очень
душно
1015.2 1014.6 +25.3 +30.9 0.0
15 15.06 ЮВ 3 10 км 10/3 540 м
[Frnb Ac As]
+29.0 +26.1 84 +44 +46 опасность
перегрева
1015.7 1015.1
18 15.06 Ю 2 10 км 10/5 420 м
[Cu med, cong Ac As]
+32.6 +28.2 78 +54 +57 опасность
перегрева
1014.8 1014.2 +25.3 +33.0
21 15.06 штиль 0 10 км 10/8 540 м
[Sc diur, vesp As op]
+33.5 +28.2 74 +55 +56 опасность
перегрева
1012.1 1011.5
12 16.06 В 1 10 км слаб. морось 10/0
[Ac As]
+25.6 +24.9 96 +36 +37 очень
душно
1013.5 1012.9 +25.2 +34.2 0.2
15 16.06 В 2 10 км в посл. час морось 9/0
[Ac As]
+27.6 +24.6 84 +39 +44 очень
душно
1013.8 1013.2 0.9
18 16.06 ЮВ 3 10 км {морось} 5/1 600 м
[Cu hum Ac trans Ci sp]
+33.6 +27.9 72 +54 +67 опасность
перегрева
1012.2 1011.6 +25.2 +33.8 0.7
21 16.06 ЮВ 2 10 км 6/3 600 м
[Cu hum Ac trans Ci]
+36.6 +28.9 65 +60 +67 опасность
перегрева
1010.1 1009.5
00 17.06 В 2 10 км 5/1 600 м
[Cu med, cong Ci fib]
+34.8 +26.7 63 +52 +53 опасность
перегрева
1009.3 1008.7 +25.2 +37.3
03 17.06 ЮВ 1 6000 м 9/9 600 м
[Sc]
+30.0 +26.6 82 +46 +46 опасность
перегрева
1011.4 1010.8
12 17.06 ЮВ 1 10 км ясно +25.1 +24.1 94 +35 +35 очень
душно
1014.8 1014.2 +24.9 +37.3
15 17.06 ЮВ 3 10 км ясно +30.9 +26.8 79 +48 +58 опасность
перегрева
1013.0 1012.5
18 17.06 ЮВ 2 10 км 6/0
[Cs]
+34.1 +28.8 74 +57 +77 опасность
перегрева
1012.0 1011.5 +24.9 +35.0
21 17.06 В 2 10 км 3/3 750 м
[Cu med, cong]
+36.4 +29.0 66 +60 +69 опасность
перегрева
1010.4 1009.9
00 18.06 С 4 10 км 5/5 420 м
[Sc diur, vesp]
+31.9 +28.9 84 +55 +55 опасность
перегрева
1010.1 1009.5 +25.2 +37.2
03 18.06 ЮВ 2 6000 м ясно +29.9 +26.6 83 +46 +46 опасность
перегрева
1012.4 1011.8
06 18.06 ЮВ 1 6000 м ясно +27.1 +25.1 89 +39 +39 очень
душно
1013.7 1013.1 +24.9 +37.2
09 18.06 ЮВ 1 6000 м ясно +26.0 +24.6 92 +37 +37 очень
душно
1012.0 1011.4
12 18.06 ЮВ 1 10 км 3/0
[Ci fib]
+25.4 +24.3 94 +35 +36 очень
душно
1013.1 1012.5 +25.0 +37.2
15 18.06 ЮВ 3 10 км 5/5 360 м
[Cu med, cong]
+31.0 +27.3 81 +49 +55 опасность
перегрева
1013.8 1013.2
18 18.06 Ю 4 10 км 4/4 630 м
[Cu med, cong]
+36.0 +29.6 70 +62 +71 опасность
перегрева
1013.4 1012.8 +25.0 +36.0
21 18.06 Ю 1 10 км 5/5 750 м
[Cu med, cong]
+37.4 +29.8 65 +63 +70 опасность
перегрева
1011.3 1010.8
00 19.06 С 12 10 км 1/1 360 м
[Cu hum]
+31.8 +29.0 85 +55 +55 опасность
перегрева
1011.1 1010.5 +25.0 +38.4
03 19.06 С 3 6000 м ясно +30.6 +28.0 86 +51 +51 опасность
перегрева
1012.9 1012.3
06 19.06 ЮВ 1 6000 м ясно +27.4 +23.8 81 +38 +38 очень
душно
1014.2 1013.6 +25.0 +38.4
09 19.06 В 1 6000 м ясно +25.8 +24.2 91 +36 +36 очень
душно
1013.4 1012.9
12 19.06 штиль 0 10 км ясно +24.8 +24.3 97 +34 +35 очень
душно
1013.9 1013.3 +24.5 +38.4
15 19.06 ЮВ 3 10 км 1/1 540 м
[Cu hum]
+32.0 +27.6 78 +52 +61 опасность
перегрева
1013.6 1013.0

 

Местоположение метеостанции Кампече (Мексика): широта 19.85 долгота -90.55 высота над уровнем моря 5 м.

В архиве по умолчанию представлена погода в Кампече за последнюю неделю. Архивные данные за месяц целиком и за предыдущие месяцы, начиная с января 2011 года, Вы можете получить, выбрав интересующий диапазон дат из раскрывающегося списка и нажав кнопку "Ввод!".


*Определитесь, кто Вы:
робот инопланетянин человек

Внимание! Время в таблицах - всемирное. Для получения местного времени необходимо прибавить поправку, которая равна -6 ч.

Смотрите также архив погоды в соседних городах и на ближайших метеорологических станциях:

Погода в Мериде 2 (Мексика) (156 км)
Погода в Мериде (Мексика) (157 км)
Погода в Прогресо (Мексика) (187 км)
Погода в Вальядолиде (Мексика) (262 км)
Погода в Фелипе-Каррильо-Пуэрто (Мексика) (278 км)
Погода в Четумале (Мексика) (281 км)
Погода в Вильяэрмосе (Мексика) (326 км)
Погода во Флоресе (Гватемала) (333 км)
Погода в Белизе (Белиз) (350 км)
Погода в Сан-Кристобаль-де-лас-Касасе (Мексика) (409 км)

Пояснения к столбцам:

Ветер - указаны скорость ветра в м/с - средняя за 10 мин, порывы в срок и между сроками (в фигурных скобках) и направление, откуда дует ветер: С - северный, СВ - северо-восточный, В - восточный, ЮВ - юго-восточный, Ю - южный, ЮЗ - юго-западный, З - западный, СЗ - северо-западный.
Видимость - горизонтальная дальность видимости в метрах или километрах. При видимости от 1 до 10 км при отсутствии осадков обычно наблюдается дымка, при ухудшении видимости до 1 км и менее - туман. В сухую погоду видимость может ухудшаться дымом, пылью или мглою.
Явления - указаны атмосферные явления, наблюдавшиеся в срок или в последний час перед сроком; фигурными скобками обозначены явления, наблюдавшиеся между сроками (за 1-3 часа до срока); квадратными скобками обозначены град или гололедные отложения с указанием их диаметра в мм.
Облачность - указаны через наклонную черту общая и нижняя облачность в баллах и высота нижней границы облаков в метрах; квадратными скобками обозначены формы облаков: Ci - перистые, Cs - перисто-слоистые, Cc - перисто-кучевые, Ac - высококучевые, As - высокослоистые, Sc - слоисто-кучевые, Ns - слоисто-дождевые, Cu - кучевые, Cb - кучево-дождевые. Подробнее классификацию облаков см. в Атласе облаков (PDF).
T - Температура воздуха - температура, измеренная на высоте 2 м над землей.
Td - Температура точки росы - температура, при понижении до которой содержащийся в воздухе водяной пар достигнет насыщения.
f - Относительная влажность воздуха - влажноcть воздуха, измеренная на высоте 2 м над землей.
Te - Эффективная температура - температура, которую ощущает одетый по сезону человек в тени. Характеристика душности погоды. При расчете учитывается влияние влажности воздуха и скорости ветра на теплоощущения человека.
Tes - Эффективная температура на солнце - температура, которую ощущает человек, с поправкой на солнечный нагрев. Характеристика знойности погоды. Зависит от высоты солнца над горизонтом, облачности и скорости ветра. Ночью, в пасмурную погоду, а также при ветре 12 м/с и более поправка равна нулю.
P - Атмосферное давление - приведенное к уровню моря атмосферное давление.
Po - Атмосферное давление - измеренное на уровне метеостанции атмосферное давление.
Tmin - Минимальная температура - минимум температуры воздуха на высоте 2 м над землей.
Tmax - Максимальная температура - максимум температуры воздуха на высоте 2 м над землей.
R - Количество осадков - Количество выпавших осадков за период времени, мм. При наведении курсора мыши на число - период времени, за который выпало указанное количество осадков.
R24 - Количество осадков - Количество выпавших осадков за 24 часа, мм.
S - Снежный покров - Высота снежного покрова, см. При наведении курсора мыши на число - состояние снежного покрова и степень покрытия местности в баллах.